Regional Weather Roundup
Issued by NWS Green Bay, WI

Home | Current Version | Previous Version | Graphics & Text | Print | Product List | Glossary Off
Versions: 1 2 3 4 5 6 7 8 9 10 11 12 13 14 15 16 17 18 19 20 21 22 23 24 25 26 27 28 29 30 31 32 33 34 35 36 37 38 39 40 41 42 43 44 45 46 47 48 49 50

000
ASUS43 KGRB 191611
RWRGRB

NORTH-CENTRAL AND NORTHEAST WISCONSIN REGIONAL WEATHER ROUNDUP
NATIONAL WEATHER SERVICE GREEN BAY WI
1100 AM CDT SAT AUG 19 2017

WIZ005-009-010>012-018-019-191700-
NORTH CENTRAL WISCONSIN

CITY           SKY/WX    TMP DP  RH WIND       PRES   REMARKS
IRONWOOD       SUNNY     73  60  63 W12       29.91S
MANITOWISH WTR SUNNY     72  62  72 W9        29.93S
ARBOR VITAE    SUNNY     72  61  69 NW8       29.93S
EAGLE RIVER    SUNNY     72  58  62 W9        29.93S
LAND O LAKES   SUNNY     73  59  62 W5        29.93F
RHINELANDER    SUNNY     73  60  63 W13G18    29.95S
PHILLIPS       SUNNY     71  62  73 SW7       29.95S
ANTIGO         SUNNY     72  60  67 W12       29.95S
TOMAHAWK         N/A     71  58  64 W8        29.96R
MERRILL        SUNNY     73  57  56 W10G17    29.95S
$$

WIZ013-073-191700-
NORTHEAST WISCONSIN

CITY           SKY/WX    TMP DP  RH WIND       PRES   REMARKS
IRON MOUNTAIN  SUNNY     74  59  59 W10       29.89R
MARINETTE      SUNNY     73  63  70 VRB7      29.90R
OCONTO         SUNNY     74  63  70 SW10      29.90S
$$

WIZ017-030-035>037-045-191700-
CENTRAL WISCONSIN

CITY           SKY/WX    TMP DP  RH WIND       PRES   REMARKS
MEDFORD        SUNNY     71  62  73 W8        29.97S
WAUSAU         SUNNY     73  59  61 W8        29.94S
MOSINEE        MOSUNNY   72  61  68 W10       29.97R
MARSHFIELD     SUNNY     73  61  65 W9        29.97R
WISC RAPIDS    SUNNY     75  63  66 W6        29.98R
STEVENS POINT  SUNNY     71  60  66 W7        29.97R
WAUPACA        SUNNY     76  60  57 W7        29.95S
SHAWANO        SUNNY     75  62  63 W7        29.92S
CLINTONVILLE   SUNNY     73  59  60 NW8       29.93S
WAUTOMA        SUNNY     75  62  64 W9        29.96S
$$

WIZ038-039-048-051-191700-
FOX VALLEY

CITY           SKY/WX    TMP DP  RH WIND       PRES   REMARKS
NWS GREEN BAY  SUNNY     75  66  73 W10       29.93R
APPLETON       SUNNY     73  59  60 W8        29.93S
OSHKOSH        SUNNY     73  63  70 VRB7      29.95R
FOND DU LAC    SUNNY     73  62  68 NW5       29.96R
$$

WIZ022-050-052-191700-
EAST CENTRAL WISCONSIN

CITY           SKY/WX    TMP DP  RH WIND       PRES   REMARKS
EPHRAIM        FAIR      68  61  78 SW7       29.89S
WASHINGTON ISL FAIR      67  61  82 SW12      29.89R
STURGEON BAY   SUNNY     70  63  78 W10       29.91S
MANITOWOC      SUNNY     73  63  70 W8        29.93S
SHEBOYGAN      SUNNY     73  66  78 W6        29.94S
$$

LMZ563-521-522-541>543-191700-
LAKESHORE

STATION/POSITION TIME  TEMP    WIND        PRES    VSBY  WAVE
                       AIR SEA DIR/SP/G                  HT/PER
                 (UTC) (F)     (DEG/KT/KT) (MB)    (MI)  (FT/S)
SHEBOYGAN LKSHOR 1600   72     260/  5/  7 1013.3F
KEWAUNEE LKSHORE 1548   71     260/  6/  8 1012.1F
NORTHPORT PIER   1540   72     280/  4/  8 1011.9S
N MID LAKE BUOY  1550   66 67  240/ 12/ 14 1012.3R         1/ 3
S GREEN BAY BUOY 1600   69 71  220/ 10/ 12 1012.5
SISTER BAY LKSHO 1603   72     250/ 11/ 13   N/A
MENOMINEE LKSHOR 1548   71     240/  6/  8 1012.0R
$$




USA.gov is the U.S. government's official web portal to all federal, state and local government web resources and services.